Location: Karaa?a�
(36.7158°N, 30.4165°E)
Time: 09:39:03
(UTC+00:00)

COSMOS 2406 - Pass Details

Date: 09 April 2020
Orbit: 842 x 865 km, 71.0° (Epoch: 31 May)

Event Time Altitude Azimuth Distance (km) Brightness Sun altitude
Exits shadow 19:13:13 67° 323° (NW) 919 3.4 -30.7°
Drops below altitude 10° 19:18:29 10° 17° (NNE) 2,482 5.9 -31.5°
Sets 19:20:58 0° 20° (NNE) 3,425 6.6 -31.9°
